Regional Weather Roundup
Issued by NWS

Home | Current Version | Previous Version | Text Only | Print | Product List | Glossary Off
Versions: 1 2 3 4 5 6 7 8 9 10 11 12 13 14 15 16 17 18 19 20 21 22 23 24 25 26 27 28 29 30 31 32 33 34 35 36 37 38 39 40 41 42 43 44 45 46 47 48 49 50

000
ASUS43 KLOT 191012
RWRIL

ILLINOIS REGIONAL WEATHER ROUNDUP
NATIONAL WEATHER SERVICE CHICAGO/ROMEOVILLE IL
500 AM CDT SUN APR 19 2015

NOTE: "FAIR" INDICATES FEW OR NO CLOUDS BELOW 12,000 FEET WITH NO
SIGNIFICANT WEATHER AND/OR OBSTRUCTIONS TO VISIBILITY.

* THESE STATIONS ARE NOT UNDER NWS QUALITY CONTROL. THEY ALSO MAY NOT
  REPORT WEATHER SUCH AS PRECIPITATION OR FOG.

ILZ001-002-007-009-015-016-024-191100-
NORTHWEST ILLINOIS

CITY           SKY/WX    TMP DP  RH WIND       PRES   REMARKS
MOLINE         MOCLDY    52  39  61 E5        29.80F
STERLING*      PTCLDY    54  39  58 E10       29.82F
SAVANNA*       CLOUDY    56  40  54 E7        29.83S
$$

ILZ003-004-008-010-011-017-018-191100-
NORTH CENTRAL ILLINOIS

CITY           SKY/WX    TMP DP  RH WIND       PRES   REMARKS
ROCKFORD       MOCLDY    54  30  40 E8        29.88F
FREEPORT*      PTCLDY    47  34  60 E12       29.86F
ROCHELLE*      PTCLDY    52  33  47 E13       29.85F
DE KALB*       MOCLDY    48  32  52 E10       29.87F
PERU*          MOCLDY    57  38  49 E13G22    29.83F
$$

ILZ005-006-012>014-019>023-191100-
NORTHEAST ILLINOIS

CITY           SKY/WX    TMP DP  RH WIND       PRES   REMARKS
CHICAGO-OHARE  MOCLDY    53  29  39 E9        29.88F
CHICAGO-MIDWAY MOCLDY    56  33  42 E7        29.89F
AURORA         MOCLDY    51  31  46 E7        29.87F
LANSING*       PTCLDY    54  30  40 SE12G17   29.89F
JOLIET*        MOCLDY    57  35  44 E12       29.86F
WAUKEGAN       PTCLDY    43  32  65 NE7       29.92F
DUPAGE AIRPORT PTCLDY    53  28  38 E7        29.87F
KANKAKEE*      MOCLDY    53  38  57 E10       29.87F
WHEELING       PTCLDY    47  33  58 E3        29.91F
MORRIS*        MOCLDY    55  35  46 SE14      29.84F
ROMEOVILLE*    PTCLDY    56  32  40 SE9       29.87F
NORTHERLY ISL    N/A     50  36  58 NE6         N/A
$$

LMZ740>746-191100-
SOUTHERN LAKE MICHIGAN

STATION/POSITION SKY/WX   TEMP    WIND        PRES    VSBY  WAVE
                          AIR SEA DIR/SP/G                  HT/PER
                          (F)     (DEG/KT/KT) (MB)    (MI)  (FT/S)
HARRISON CRIB              50     120/  6/  8   N/A
BURNHAM HARBOR             50      60/  4/  6   N/A
CALUMET HARBOR             53      90/  6/  8   N/A
BURNS HARBOR               56     120/ 19/ 25 1013.2F
MICHIGAN CITY              55      90/ 12/ 17   N/A
MICHIGAN CITY 6N           52 44  130/ 12/ 16   N/A           3/ 6
$$

ILZ025>027-034>036-040-047-049-050-058-095>099-191100-
WEST-CENTRAL ILLINOIS

CITY           SKY/WX    TMP DP  RH WIND       PRES   REMARKS
QUINCY         PTCLDY    55  52  89 NE6       29.74F
GALESBURG*     MOCLDY    54  43  67 E7        29.78F
MACOMB*        MOCLDY    54  48  81 NE6       29.79F
JACKSONVILLE*  CLOUDY    60  50  69 E7        29.75F
PITTSFIELD*    MOCLDY    62  50  64 CALM      29.75F
$$

ILZ028>032-037-038-041>044-048-051>054-059>061-191100-
CENTRAL ILLINOIS

CITY           SKY/WX    TMP DP  RH WIND       PRES   REMARKS
PONTIAC        CLOUDY    55  43  62 E15       29.84F
BLOOMINGTON    CLOUDY    57  50  78 E12       29.82F
DECATUR        MOCLDY    57  49  74 E10       29.78F
PEORIA         CLOUDY    58  45  62 E13       29.78F
LACON*         MOCLDY    54  43  66 E8        29.80F
LINCOLN*       CLOUDY    58  49  71 E7        29.76F
SPRINGFIELD    MOCLDY    57  48  72 E6        29.76F
TAYLORVILLE    PTCLDY    59  48  67 E6        29.76F
$$

ILZ033-039-045-046-055>057-062-063-191100-
EAST-CENTRAL ILLINOIS

CITY           SKY/WX    TMP DP  RH WIND       PRES   REMARKS
CHAMPAIGN      CLOUDY    58  50  75 E10       29.80F
DANVILLE*      CLOUDY    55  45  68 E9        29.80F
RANTOUL*       CLOUDY    58  48  69 E13       29.82F
MATTOON        CLOUDY    63  47  55 E8        29.77F
PARIS*         CLOUDY    58  52  79 NE7       29.80F
$$

ILZ079-100>102-191100-
SOUTHWEST ILLINOIS

CITY           SKY/WX    TMP DP  RH WIND       PRES   REMARKS
ALTON          MOCLDY    62  48  60 E7        29.72F
BELLEVILLE     CLOUDY    62  54  76 E3        29.71F
CAHOKIA*       CLOUDY    64  53  67 SE6       29.71F
SPARTA*        LGT RAIN  62  56  82 SE6       29.73F
$$

ILZ064>066-069>071-074>076-080>082-084>086-088>090-092>094-191100-
SOUTH-CENTRAL ILLINOIS

CITY           SKY/WX    TMP DP  RH WIND       PRES   REMARKS
CARBONDALE     LGT RAIN  62  59  90 NE3       29.72F FOG
CAIRO*         RAIN      64  64 100 CALM      29.70F
EFFINGHAM*     CLOUDY    64  45  50 NE6       29.77F
MARION         LGT RAIN  63  61  94 NE3       29.72F
MT. VERNON     CLOUDY    61  52  72 CALM      29.76S
CENTRALIA*     LGT RAIN  60  51  74 E3        29.74F
SALEM*         LGT RAIN  65  49  58 E6        29.75F
METROPOLIS*    HVY RAIN  63  63 100 CALM      29.70F
$$

ILZ067-068-072-073-078-083-087-091-191100-
SOUTHEAST ILLINOIS

CITY           SKY/WX    TMP DP  RH WIND       PRES   REMARKS
LAWRENCEVILLE  CLOUDY    64  49  57 NE5       29.76F
FLORA*         LGT RAIN  59  53  79 CALM      29.76F
FAIRFIELD*     LGT RAIN  61  55  79 N3        29.74F
HARRISBURG*    LGT RAIN  62  61  96 E3        29.73F
ROBINSON*      CLOUDY    63  48  59 E7        29.78F
CARMI*         LGT RAIN  61  53  76 E7        29.73F
$$

ABBREVIATIONS USED IN REMARKS
   TC - TEMPERATURE IN CELSIUS
  WCI - WIND CHILL INDEX
   HX - HEAT INDEX
  VSB - VISIBILITY
$$




USA.gov is the U.S. government's official web portal to all federal, state and local government web resources and services.